Home > Weather > Post Falls > Past weeks

Flag for U.S.A. Weather for the Past 2 Weeks in Post Falls, Idaho, U.S.A.

Now
43 °F

Overcast.


Feels Like: 36 °F
Forecast: 33 / 47 °F
Wind: 13 mph from Northeast

Location: Coeur d'Alene Weather Reporting System

Current Time: Feb 11, 2016 at 2:17:21 PM

Latest Report: Feb 11, 2016 at 1:55 PM


Visibility: 10 mi

Pressure: 30.25 "Hg (27.89 "Hg at 664m altitude)

Humidity: 81%

Dew point: 37 °F

Location of Post FallsLocation

Historic Weather in Post Falls — Graph

°F

Post Falls Temperature Yesterday

Maximum temperature yesterday: 45 °F (at 2:55 PM)
Minimum temperature yesterday: 27 °F (at 5:55 AM)
Average temperature yesterday: 34 °F

High & Low Weather Summary for the Past Weeks

 TemperatureHumidityPressure
High50 °F (Feb 8, 1:55 PM)100% (Jan 27, 6:35 PM)30.62 "Hg (Jan 27, 6:35 PM)
Low18 °F (Feb 3, 5:15 AM)54% (Feb 8, 12:35 PM)29.56 "Hg (Jan 29, 1:15 PM)
Average34 °F84%30.17 "Hg
* Reported Jan 27 12:15 PM — Feb 11 12:55 PM, Post Falls, Weather by CustomWeather, © 2016

Note: Actual official high and low records may vary slightly from our data, if they occured in-between our weather recording intervals... More about our weather records

Advertising

Post Falls Weather History for the Previous 24 Hours

 ConditionsComfort  
Time TempWeatherWind HumidityBarometerVisibility
12:55 PM
Thu, Feb 11
43 °FPartly sunny.14 mph81%30.28 "Hg10 mi
12:35 PM43 °FPartly sunny.14 mph81%30.28 "Hg10 mi
12:15 PM41 °FPartly sunny.13 mph93%30.28 "Hg10 mi
11:55 AM39 °FPassing clouds.15 mph93%30.29 "Hg10 mi
11:35 AM39 °FPassing clouds.14 mph93%30.29 "Hg10 mi
11:15 AM39 °FScattered clouds.12 mph93%30.30 "Hg8 mi
10:55 AM37 °FScattered clouds.9 mph100%30.31 "Hg5 mi
10:35 AM37 °FPassing clouds.8 mph93%30.31 "Hg5 mi
10:15 AM36 °FSunny.6 mph100%30.30 "Hg4 mi
9:55 AM36 °FScattered clouds.7 mph100%30.31 "Hg3 mi
9:35 AM36 °FLow clouds.9 mph93%30.31 "Hg1 mi
9:15 AM36 °FLow clouds.9 mph93%30.32 "Hg1 mi
8:55 AM34 °FLow clouds.13 mph93%30.32 "Hg1 mi
8:35 AM34 °FScattered clouds.12 mph87%30.31 "Hg5 mi
8:15 AM30 °FSunny.3 mph93%30.31 "Hg7 mi
7:55 AM30 °FPartly sunny.6 mph93%30.30 "Hg1 mi
7:35 AM28 °FLow clouds.No wind93%30.31 "Hg0 mi
7:15 AM30 °FLow clouds.No wind93%30.29 "Hg0 mi
6:55 AM28 °FLow clouds.3 mph86%30.29 "Hg0 mi
6:35 AM30 °FLow clouds.3 mph93%30.28 "Hg0 mi
6:15 AM30 °FLow clouds.6 mph93%30.28 "Hg0 mi
5:55 AM30 °FPassing clouds.6 mph86%30.28 "Hg5 mi
5:35 AM30 °FClear.6 mph86%30.28 "Hg5 mi
5:15 AM32 °FClear.No wind87%30.28 "Hg8 mi
4:55 AM32 °FClear.No wind93%30.28 "Hg9 mi
4:35 AM30 °FClear.No wind93%30.29 "Hg10 mi
4:15 AM30 °FClear.No wind93%30.28 "Hg10 mi
3:55 AM32 °FClear.No wind87%30.29 "Hg7 mi
3:35 AM34 °FClear.N/A87%30.29 "Hg10 mi
3:15 AM34 °FClear.3 mph87%30.29 "Hg10 mi
2:55 AM32 °FClear.6 mph87%30.29 "Hg10 mi
2:35 AM36 °FClear.No wind93%30.28 "Hg10 mi
2:15 AM34 °FClear.3 mph87%30.28 "Hg10 mi
1:55 AM36 °FClear.3 mph93%30.27 "Hg10 mi
1:35 AM37 °FClear.6 mph87%30.27 "Hg9 mi
1:15 AM36 °FClear.7 mph93%30.26 "Hg10 mi
12:55 AM36 °FClear.3 mph87%30.26 "Hg10 mi
12:35 AM37 °FClear.N/A87%30.26 "Hg10 mi
12:15 AM37 °FClear.N/A87%30.26 "Hg10 mi
11:55 PM
Wed, Feb 10
37 °FClear.6 mph87%30.26 "Hg10 mi
11:35 PM37 °FClear.7 mph87%30.27 "Hg10 mi
11:15 PM37 °FClear.9 mph87%30.27 "Hg10 mi
10:55 PM37 °FClear.7 mph87%30.27 "Hg10 mi
10:35 PM37 °FClear.7 mph87%30.27 "Hg10 mi
10:15 PM37 °FClear.6 mph93%30.26 "Hg10 mi
9:55 PM36 °FClear.7 mph93%30.26 "Hg10 mi
9:35 PM37 °FClear.6 mph87%30.26 "Hg10 mi
9:15 PM37 °FClear.6 mph87%30.25 "Hg10 mi
8:35 PM36 °FClear.No wind87%30.25 "Hg10 mi
8:15 PM36 °FClear.No wind81%30.23 "Hg10 mi
7:55 PM37 °FClear.No wind87%30.23 "Hg10 mi
7:35 PM36 °FClear.No wind81%30.23 "Hg10 mi
6:35 PM37 °FPassing clouds.No wind87%30.23 "Hg8 mi
6:15 PM37 °FOvercast.No wind87%30.23 "Hg10 mi
5:35 PM39 °FPassing clouds.No wind87%30.22 "Hg10 mi
5:15 PM39 °FPassing clouds.No wind87%30.22 "Hg10 mi
4:55 PM39 °FBroken clouds.6 mph87%30.22 "Hg10 mi
4:35 PM41 °FOvercast.No wind81%30.22 "Hg10 mi
3:55 PM41 °FMostly cloudy.3 mph81%30.22 "Hg9 mi
3:15 PM43 °FScattered clouds.6 mph76%30.22 "Hg10 mi
2:55 PM45 °FScattered clouds.6 mph71%30.23 "Hg10 mi
2:35 PM43 °FPassing clouds.No wind76%30.21 "Hg10 mi
Weather by CustomWeather, © 2016

See weather overviewHow to use our weather pages